map of EGI home
Great Circle Mapper logo
EGI - Airport
Location
City:  Crestview, Florida, United States
Name:Duke Field
Old (Alt.):Eglin AF Auxiliary Number 3
ICAO / IATA:KEGI / EGI
FAA:EGI

Details
Type:Airport (Airfield)
Use:Military
Latitude:3038'55"N (30.648587)
Longitude:8631'19"W (-86.521958)
Datum:WGS 1984
Elevation:195 ft (59 m)
Runways:2
Longest:8025 × 150 ft (2446 × 45.5 m), paved

Time
Time Zone:UTC-6 (DST-5)
Local Time:

Weather
METAR:KEGI 010455Z 34013G21KT 10SM BKN034 14/08 A3005 RMK AO2A SLP178 T01390076 $

Related Locations
Nearby:
Farthest:USL: 11195 mi / 18017 km
Useless Loop, WA, AU

Find:

   beyond  
but within

Other Information
Maps:
NOTAMs:
Links:
Sources:

  
flag of United States
flag of Florida
  

Airport Diagram

Airport diagram for EGI

Airport diagram PDF

Sectional Chart

Flight Planning
at skyvector.com

Satellite Image

Google Maps Satellite View

 

Copyright © 2004-2014 Karl L. Swartz. All rights reserved.
The Great Circle Mapper name and logo are trademarks of the Great Circle Mapper.
All other trademarks mentioned herein belong to their respective owners.
Please see credits for attibutions and further copyright information.

  Follow gcmap on Facebook Follow gcmap on Twitter

hCard Microformat

Geo Microformat